Location: Newark
(45.2862°N, 9.8850°E)
Time: 02:45:50
(UTC+00:00)

N. Korean satellite - Pass Details

Date: 12 December 2019
Orbit: 454 x 507 km, 97.2° (Epoch: 23 January)

Event Time Altitude Azimuth Distance (km) Brightness Sun altitude
Rises 05:42:37 0° 5° (N) 2,546 10.1 -11.4°
Reaches altitude 10° 05:44:46 10° 358° (N) 1,652 9.0 -11.0°
Maximum altitude 05:48:06 40° 288° (WNW) 702 6.9 -10.5°
Drops below altitude 10° 05:51:22 10° 217° (SW) 1,613 9.1 -10.0°
Sets 05:53:27 0° 210° (SSW) 2,475 10.1 -9.6°
